Regional Weather Roundup
Issued by NWS Albany, NY

Home | Current Version | Previous Version | Graphics & Text | Print | Product List | Glossary Off
Versions: 1 2 3 4 5 6 7 8 9 10 11 12 13 14 15 16 17 18 19 20 21 22 23 24 25 26 27 28 29 30 31 32 33 34 35 36 37 38 39 40 41 42 43 44 45 46 47 48 49 50

000
ASUS41 KALY 270510
RWRALY

NEW YORK STATE HOURLY WEATHER ROUNDUP
NATIONAL WEATHER SERVICE ALBANY NY
1200 AM EST FRI FEB 27 2015

NOTE: "FAIR" INDICATES FEW OR NO CLOUDS BELOW 12,000 FEET WITH NO
SIGNIFICANT WEATHER AND/OR NO OBSTRUCTIONS TO VISIBILITY.

NYZ032-033-038>043-046>054-057>066-NYZ062>081-270600-
EAST


CITY           SKY/WX    TMP DP  RH WIND       PRES   REMARKS
ALBANY         CLOUDY    11  -2  56 N8        30.20R WCI  -1
GLENS FALLS    CLOUDY     8  -6  52 E3        30.19R
POUGHKEEPSIE   CLOUDY    14   4  64 CALM      30.17R
NEWBURGH       CLOUDY    14   9  79 CALM      30.15R
MONTGOMERY     CLOUDY     9   4  80 CALM      30.14R
WHITE PLAINS   PTCLDY    17   4  56 NW9       30.12R WCI   6
ISLIP          MOCLDY    21  12  68 NW6       30.12R WCI  13
NEW YORK CITY  MOCLDY    23   9  55 NW10      30.15R WCI  12
CENTRAL PARK   PTCLDY    21   7  54 CALM      30.17R
$$

NYZ005>009-017-018-044>046-055-056-270600-
CENTRAL


CITY           SKY/WX    TMP DP  RH WIND       PRES   REMARKS
FULTON         PTCLDY     3  -2  79 CALM      30.23R
SYRACUSE       CLOUDY    10   1  66 W6        30.22F WCI   0
ROME           CLOUDY     6  -1  73 NW3       30.22R
ELMIRA         CLOUDY    10   3  73 CALM      30.18R
BINGHAMTON     CLOUDY     6   1  80 NW8       30.08R WCI  -7
MONTICELLO     CLEAR     12   5  73 NW5       30.07R WCI   4
$$

NYZ026>034-041>043-270600-
NORTH


CITY           SKY/WX    TMP DP  RH WIND       PRES   REMARKS
WATERTOWN      PTCLDY    -5 -11  75 SE3       30.24R
FORT DRUM      NOT AVBL
MASSENA        PTCLDY    -9 -16  71 CALM      30.25R
SARANAC LAKE   PTCLDY    -9 -15  75 CALM      30.05R
PLATTSBURGH    CLEAR     -2  -7  79 CALM      30.21R
$$

NYZ001>004-010>016-019>021-270600-
WEST


CITY           SKY/WX    TMP DP  RH WIND       PRES   REMARKS
NIAGARA FALLS  CLOUDY    10   1  67 NW12      30.25R WCI  -5
BUFFALO        LGT SNOW  11   5  77 NW8       30.23R WCI  -1
DUNKIRK        LGT SNOW   9   6  88 W5        30.26R FOG     WCI   1
JAMESTOWN      CLOUDY     7   1  78 NW6       30.13R WCI  -3
WELLSVILLE     CLOUDY     5  -1  76 NW5       30.08R WCI  -4
ROCHESTER      FLURRIES   9   5  84 W7        30.24R WCI  -2
PENN YAN       CLOUDY     9   4  80 CALM      30.19R
$$

             KEY
       WCI = WIND CHILL INDEX
       VSB = VISIBILITY
       HX  = HEAT INDEX
$$



USA.gov is the U.S. government's official web portal to all federal, state and local government web resources and services.